Location: Belvedere Heights
(33.9836°N, 117.3109°W)
Time: 07:36:20
(UTC+00:00)

M-CUBED/EXP-1 PRIME - Visible Passes

Search period start: 21 May 2024 00:00
Search period end: 31 May 2024 00:00
Orbit: 321 x 372 km, 101.7° (Epoch: 20 May)

Date Brightness Start Highest point End Pass type
(mag) Time Alt. Az. Time Alt. Az. Time Alt. Az.
21 May ? 11:12:39 10° ENE 11:12:59 10° ENE 11:13:21 10° ENE visible
22 May ? 11:34:14 10° ESE 11:36:17 21° ENE 11:38:21 10° NNE visible
23 May ? 11:56:36 10° SSE 11:59:08 48° ENE 12:01:40 10° N visible
26 May ? 11:33:36 10° E 11:35:01 14° ENE 11:36:24 10° NE visible
27 May ? 11:53:37 10° SE 11:55:52 26° ENE 11:58:07 10° N visible
